Flag for U.S.A. Weather past 2 weeks in Panama City, Florida, U.S.A.

Now
79 °F

Sunny.


Feels Like: 80 °F
Forecast: 60 / 79 °F
Wind: 2 mph from North

Location: Tyndall Air Force Base

Current Time: Oct 21, 2014 at 1:45:54 PM

Latest Report: Oct 21, 2014 at 12:58 PM


Visibility: 10 mi

Pressure: 30.00 "Hg

Humidity: 48%

Dew point: 57 °F

Location of Panama CityLocation

Historic Weather in Panama City — Graph

°F

Panama City temperature yesterday

Maximum temperature yesterday: 80 °F (at 2:58 PM)
Minimum temperature yesterday: 57 °F (at 3:58 AM)
Average temperature yesterday: 67 °F

Past Weeks' High & Low Weather Summary

 TemperatureHumidityPressure
High86 °F (Oct 11, 2:58 PM)100% (Oct 7, 11:03 PM)30.17 "Hg (Oct 7, 11:03 PM)
Low53 °F (Oct 17, 6:58 AM)43% (Oct 19, 3:58 PM)29.85 "Hg (Oct 14, 6:55 AM)
Average71 °F83%30.03 "Hg
* Reported Oct 6 12:58 PM — Oct 21 12:58 PM, Panama City, Weather by CustomWeather, © 2014

Note: Actual official high and low records may vary slightly from our data, if they occured in-between our weather recording intervals... More about our weather records

Advertising

Panama City weather history for previous 24 hours

 ConditionsComfort  
Time TempWeatherWind HumidityBarometerVisibility
12:58 PM
Oct 21
79 °FSunny.2 mph48%30.00 "Hg10 mi
11:58 AM78 °FSunny.5 mph54%30.02 "Hg10 mi
10:58 AM75 °FSunny.7 mph58%30.03 "Hg10 mi
9:58 AM71 °FSunny.8 mph65%30.03 "Hg10 mi
8:58 AM67 °FSunny.8 mph74%30.03 "Hg10 mi
7:58 AM64 °FSunny.5 mph79%30.02 "Hg10 mi
6:58 AM61 °FSunny.5 mph84%30.01 "Hg10 mi
5:58 AM62 °FClear.5 mph83%30.00 "Hg10 mi
4:58 AM61 °FClear.6 mph85%29.99 "Hg10 mi
3:58 AM62 °FClear.2 mph83%29.98 "Hg10 mi
2:58 AM62 °FClear.7 mph82%29.99 "Hg10 mi
1:58 AM64 °FClear.3 mph81%30.00 "Hg10 mi
12:58 AM63 °FClear.5 mph84%30.00 "Hg10 mi
11:58 PM
Oct 20
63 °FClear.6 mph90%30.00 "Hg10 mi
10:58 PM64 °FClear.6 mph97%30.01 "Hg10 mi
9:58 PM63 °FClear.No wind99%30.01 "Hg10 mi
8:58 PM63 °FClear.1 mph98%30.00 "Hg10 mi
7:58 PM65 °FClear.No wind93%30.00 "Hg10 mi
6:58 PM66 °FClear.2 mph89%29.99 "Hg10 mi
5:58 PM72 °FSunny.5 mph76%29.98 "Hg10 mi
4:58 PM76 °FSunny.9 mph64%29.98 "Hg10 mi
3:58 PM78 °FSunny.10 mph67%29.98 "Hg10 mi
2:58 PM80 °FSunny.9 mph66%29.99 "Hg10 mi
1:58 PM79 °FSunny.7 mph66%30.00 "Hg10 mi
Weather by CustomWeather, © 2014

See weather overviewHow to use our weather pages